This demonstration page uses our WeatherBlox Daily Observations layout. Learn more.

Left ArrowRight Arrow

39.51506, -84.39828

Hourly Observations for September 20, 2020

Temp ( °F °C ) Dew Point ( °F °C ) Humidity (%) Winds ( mph kmh ) Pressure ( in mb ) Visibility ( mi km ) Precip ( " mm )
12:15 am 00:15 Clear 46 7.5 39 3.9 78 78 Calm 30.38 1029 10 16.0934 0 0
12:35 am 00:35 Clear 46 7.7 40 4.2 79 79 Calm 30.38 1029 10 16.0934 0 0
12:55 am 00:55 Clear 42 5.7 39 3.7 87 87 Calm 30.38 1029 10 16.0934 0 0
1:15 am 01:15 Clear 43 6.2 39 3.9 85 85 Calm 30.38 1029 10 16.0934 0 0
1:35 am 01:35 Clear 44 6.4 39 3.8 84 84 N 5 7 30.39 1029 10 16.0934 0 0
1:55 am 01:55 Clear 45 7.1 39 3.9 80 80 N 5 7 30.39 1029 10 16.0934 0 0
2:15 am 02:15 Clear 44 6.5 39 3.9 84 84 NNE 3 6 30.39 1029 10 16.0934 0 0
2:35 am 02:35 Clear 43 5.9 38 3.6 85 85 Calm 30.4 1029 10 16.0934 0 0
2:55 am 02:55 Clear 43 6.2 40 4.6 90 90 Calm 30.4 1029 10 16.0934 0 0
3:15 am 03:15 Clear 44 6.7 40 4.4 85 85 Calm 30.4 1029 10 16.0934 0 0
3:35 am 03:35 Clear 42 5.7 40 4.6 93 93 Calm 30.4 1029 10 16.0934 0 0
3:55 am 03:55 Clear 42 5.6 39 3.8 88 88 Calm 30.4 1029 10 16.0934 0 0
4:15 am 04:15 Clear 41 5.1 39 3.8 91 91 Calm 30.4 1030 10 16.0934 0 0
4:35 am 04:35 Clear 41 5.1 39 3.8 91 91 Calm 30.39 1029 10 16.0934 0 0
4:55 am 04:55 Clear 42 5.4 39 4 91 91 Calm 30.4 1029 10 16.0934 0 0
5:15 am 05:15 Clear 42 5.8 40 4.2 90 90 Calm 30.4 1029 10 16.0934 0 0
5:35 am 05:35 Clear 43 5.9 39 4.1 88 88 Calm 30.4 1029 10 16.0934 0 0
5:55 am 05:55 Clear 41 5.1 38 3.5 90 90 N 3 6 30.41 1030 10 16.0934 0 0
6:15 am 06:15 Clear 42 5.5 39 3.9 90 90 N 5 7 30.41 1030 10 16.0934 0 0
6:35 am 06:35 Clear 41 5.2 39 3.8 91 91 Calm 30.42 1030 10 16.0934 0 0
6:55 am 06:55 Clear 42 5.3 39 4 91 91 Calm 30.42 1030 10 16.0934 0 0
7:15 am 07:15 Clear 40 4.4 38 3.2 92 92 Calm 30.43 1031 10 16.0934 0 0
7:35 am 07:35 Sunny 40 4.5 38 3.5 93 93 Calm 30.44 1031 10 16.0934 0 0
7:55 am 07:55 Sunny 41 5.1 39 4.1 93 93 Calm 30.44 1031 10 16.0934 0 0
8:15 am 08:15 Sunny 43 6 41 4.9 93 93 Calm 30.45 1031 10 16.0934 0 0
8:35 am 08:35 Sunny 46 7.7 42 5.6 87 87 Calm 30.45 1031 10 16.0934 0 0
8:55 am 08:55 Sunny 49 9.6 42 5.7 77 77 NE 6 9 30.44 1031 10 16.0934 0 0
9:15 am 09:15 Sunny 51 10.7 42 5.6 71 71 NNE 7 11 30.44 1031 10 16.0934 0 0
9:35 am 09:35 Sunny 54 12 41 5.2 63 63 NE 8 13 30.44 1031 10 16.0934 0 0
9:55 am 09:55 Sunny 56 13.3 41 5.1 58 58 NE 10 17 30.44 1031 10 16.0934 0 0
10:15 am 10:15 Sunny 58 14.7 39 3.7 48 48 ENE 9 15 30.45 1031 10 16.0934 0 0
10:35 am 10:35 Sunny 60 15.7 38 3.2 43 43 ENE 12 19 30.44 1031 10 16.0934 0 0
10:55 am 10:55 Sunny 62 16.8 37 2.9 40 40 ENE 9 15 30.44 1031 10 16.0934 0 0
11:15 am 11:15 Sunny 65 18.1 36 2 34 34 E 13 20 30.45 1031 10 16.0934 0 0
11:35 am 11:35 Sunny 65 18.5 36 2.1 34 34 E 12 19 30.45 1031 10 16.0934 0 0
11:55 am 11:55 Sunny 66 18.9 35 1.5 31 31 E 14 22 30.45 1031 10 16.0934 0 0
12:15 pm 12:15 Sunny 68 19.9 34 1.2 29 29 E 16 26 30.44 1031 10 16.0934 0 0
12:35 pm 12:35 Sunny 68 20.1 34 0.9 28 28 E 12 19 30.44 1031 10 16.0934 0 0
12:55 pm 12:55 Sunny 70 20.9 34 0.9 27 27 ENE 13 20 30.43 1031 10 16.0934 0 0
1:15 pm 13:15 Sunny 70 21 33 0.8 26 26 E 10 17 30.43 1031 10 16.0934 0 0
1:35 pm 13:35 Sunny 70 21.2 33 0.4 25 25 E 13 20 30.42 1030 10 16.0934 0 0
1:55 pm 13:55 Sunny 70 21.3 33 0.3 25 25 ENE 9 15 30.42 1030 10 16.0934 0 0
2:15 pm 14:15 Sunny 71 21.9 29 -1.7 21 21 E 12 19 30.41 1030 10 16.0934 0 0
2:35 pm 14:35 Sunny 72 22.3 32 -0.1 23 23 ENE 13 20 30.4 1029 10 16.0934 0 0
2:55 pm 14:55 Sunny 72 22.2 30 -1 21 21 ENE 9 15 30.4 1029 10 16.0934 0 0
3:15 pm 15:15 Sunny 73 22.8 30 -1.3 20 20 E 16 26 30.39 1029 10 16.0934 0 0
3:35 pm 15:35 Sunny 73 22.9 31 -0.4 21 21 ENE 13 20 30.38 1029 10 16.0934 0 0
3:55 pm 15:55 Sunny 75 23.8 31 -0.8 20 20 E 15 24 30.37 1028 10 16.0934 0 0
4:15 pm 16:15 Sunny 74 23.4 30 -1.1 20 20 E 10 17 30.37 1028 10 16.0934 0 0
4:35 pm 16:35 Sunny 74 23.2 28 -2 19 19 E 12 19 30.37 1028 10 16.0934 0 0
4:55 pm 16:55 Sunny 74 23.1 28 -2.2 18 18 ENE 13 20 30.36 1028 10 16.0934 0 0
5:15 pm 17:15 Sunny 74 23.1 29 -1.5 19 19 E 14 22 30.35 1028 10 16.0934 0 0
5:35 pm 17:35 Sunny 73 22.8 28 -2 19 19 E 8 13 30.35 1028 10 16.0934 0 0
5:55 pm 17:55 Sunny 73 22.6 27 -2.9 18 18 E 15 24 30.37 1028 10 16.0934 0 0
6:15 pm 18:15 Sunny 72 22.4 28 -2.1 19 19 E 8 13 30.37 1028 10 16.0934 0 0
6:35 pm 18:35 Sunny 71 21.8 26 -3.1 19 19 E 13 20 30.37 1028 10 16.0934 0 0
6:55 pm 18:55 Sunny 70 21.3 28 -2.2 21 21 E 9 15 30.37 1028 10 16.0934 0 0
7:15 pm 19:15 Sunny 67 19.7 30 -1.2 25 25 E 8 13 30.38 1029 10 16.0934 0 0
7:35 pm 19:35 Sunny 64 17.5 30 -1.1 28 28 ENE 7 11 30.38 1029 10 16.0934 0 0
7:55 pm 19:55 Clear 62 16.8 32 -0.2 32 32 ENE 3 6 30.38 1029 10 16.0934 0 0
8:15 pm 20:15 Clear 58 14.7 35 1.8 42 42 Calm 30.39 1029 10 16.0934 0 0
8:35 pm 20:35 Clear 56 13.1 37 2.6 49 49 Calm 30.4 1030 10 16.0934 0 0
8:55 pm 20:55 Clear 53 11.9 38 3.5 57 57 Calm 30.41 1030 10 16.0934 0 0
9:15 pm 21:15 Clear 53 11.8 39 4 59 59 Calm 30.41 1030 10 16.0934 0 0
9:35 pm 21:35 Clear 52 11.3 39 4 61 61 Calm 30.43 1030 10 16.0934 0 0
9:55 pm 21:55 Clear 51 10.7 42 5.3 70 70 Calm 30.43 1030 10 16.0934 0 0
10:15 pm 22:15 Clear 51 10.8 40 4.4 65 65 Calm 30.43 1030 10 16.0934 0 0
10:35 pm 22:35 Clear 51 10.6 43 6.2 74 74 Calm 30.43 1030 10 16.0934 0 0
10:55 pm 22:55 Clear 51 10.8 41 5.2 69 69 Calm 30.44 1031 10 16.0934 0 0
11:15 pm 23:15 Clear 50 9.9 42 5.3 73 73 Calm 30.44 1031 10 16.0934 0 0
11:35 pm 23:35 Clear 49 9.5 43 6 79 79 Calm 30.44 1031 10 16.0934 0 0
11:55 pm 23:55 Clear 48 8.7 40 4.7 76 76 Calm 30.44 1031 10 16.0934 0 0

Powered by AerisWeather